• Join FlightAware (Why Join?)
  • Login
  • US Flag GB Flag 
13:25 EST


 

Airport Tracker/Info


-or-


 

Live Flight TrackerFlight Track Log ✈ SWA561 ✈ 19-Apr-2013 ✈ KOAK - KLAX

Flight Track Log - Related Links

Times and Time Zones

All times are in EDT time to prevent confusion due to time zone crossing. See the SWA561 flight status page for this flight to view local times or setup timezone preferences in your user account.

Time Position Orientation Groundspeed Altitude Reporting Facility
EDT Latitude Longitude Course Direction KTS MPH feet Rate Location/Type
20:32 37.7194 -122.2425 140° Southeast 149 171 1,000  Level Oakland Center
20:33 37.7422 -122.2997 297° West 194 223 3,000 1,980 Climbing Oakland Center
20:34 37.7250 -122.3622 251° West 217 250 5,100 2,820 Climbing Oakland Center
20:35 37.6458 -122.3828 192° South 264 304 8,900 3,000 Climbing Oakland Center
20:37 37.5403 -122.4122 192° South 312 359 11,300 2,940 Climbing Oakland Center
20:38 37.2746 -121.7438 140° Southeast  Level Estimated
20:38 37.4403 -122.3883 169° South 374 430 14,900  Level Oakland Center
20:39 37.3564 -122.2972 139° Southeast 398 458 18,200 2,940 Climbing Oakland Center
20:40 37.2792 -122.1864 131° Southeast 416 479 21,000 2,580 Climbing Oakland Center
20:41 37.1978 -122.0750 133° Southeast 430 495 23,600 2,820 Climbing Oakland Center
20:42 37.1150 -121.9594 132° Southeast 443 510 26,800 2,640 Climbing Oakland Center
20:43 37.0333 -121.8444 132° Southeast 444 511 29,000 1,020 Climbing Oakland Center
20:44 36.9511 -121.7317 132° Southeast 441 507 29,000  Level Oakland Center
20:45 36.8700 -121.6183 132° Southeast 437 503 29,000  Level Oakland Center
20:46 36.7797 -121.4972 133° Southeast 435 501 29,000  Level Oakland Center
20:47 36.6992 -121.3842 132° Southeast 435 501 29,000  Level Oakland Center
20:48 36.6178 -121.2742 133° Southeast 433 498 29,000  Level Oakland Center
20:49 36.5356 -121.1639 133° Southeast 435 501 29,000  Level Oakland Center
20:50 36.4381 -121.0317 132° Southeast 433 498 29,000  Level Oakland Center
20:51 36.3564 -120.9211 133° Southeast 433 498 29,000  Level Oakland Center
20:52 36.2742 -120.8094 132° Southeast 436 502 29,000  Level Oakland Center
20:53 36.1919 -120.7000 133° Southeast 434 499 29,000  Level Oakland Center
20:54 36.1094 -120.5889 133° Southeast 435 501 29,000  Level Oakland Center
20:55 36.0264 -120.4767 132° Southeast 446 513 29,000  Level Oakland Center
20:56 35.9439 -120.3686 133° Southeast 433 498 29,000  Level Oakland Center
20:57 35.8606 -120.2592 133° Southeast 434 499 29,000  Level Oakland Center
20:58 35.7772 -120.1503 133° Southeast 434 499 29,000  Level Oakland Center
20:59 35.6944 -120.0411 133° Southeast 433 498 29,000  Level Oakland Center
21:00 35.6053 -119.9403 137° Southeast 429 494 29,000  Level Oakland Center
21:01 35.5047 -119.8564 146° Southeast 431 496 29,000  Level Oakland Center
21:02 35.3861 -119.7533 145° Southeast 431 496 29,000  Level Oakland Center
21:03 35.3278 -119.7036 145° Southeast 429 494 29,000  Level Los Angeles Center
21:04 35.2308 -119.6192 145° Southeast 427 491 29,000  Level Los Angeles Center
21:05 35.1331 -119.5361 145° Southeast 427 491 29,000  Level Los Angeles Center
21:06 35.0350 -119.4528 145° Southeast 428 493 29,000  Level Los Angeles Center
21:07 34.9375 -119.3697 145° Southeast 427 491 29,000 -900 Level Los Angeles Center
21:08 34.8231 -119.2736 145° Southeast 417 480 27,200 -2,100 Descending Los Angeles Center
21:09 34.7275 -119.1919 145° Southeast 418 481 24,700 -2,460 Descending Los Angeles Center
21:10 34.6219 -119.1025 145° Southeast 430 495 22,100 -2,340 Descending Los Angeles Center
21:11 34.5233 -119.0211 146° Southeast 406 467 19,900 -2,100 Descending Los Angeles Center
21:12 34.4319 -118.9464 146° Southeast 393 452 17,800 -2,040 Descending Los Angeles Center
21:13 34.3414 -118.8764 147° Southeast 383 441 15,700 -2,040 Descending Los Angeles Center
21:14 34.2411 -118.8386 163° South 377 434 13,600 -2,100 Descending Los Angeles Center
21:15 34.1428 -118.8028 163° South 369 425 11,400 -1,680 Descending Los Angeles Center
21:16 34.0467 -118.7514 156° South 346 398 10,200 -780 Descending Los Angeles Center
21:17 34.0283 -118.6464 102° East 299 344 9,900 -780 Descending Los Angeles Center
21:18 34.0186 -118.5483 97° East 295 339 8,600 -1,260 Descending Los Angeles Center
21:19 34.0106 -118.4553 96° East 281 323 7,400 -1,380 Descending Los Angeles Center
21:20 34.0172 -118.3681 85° East 266 306 5,800 -1,560 Descending Los Angeles Center
21:21 34.0250 -118.2767 84° East 270 311 4,200 -1,260 Descending Los Angeles Center
21:22 34.0081 -118.1994 105° East 266 306 3,300 -840 Descending Los Angeles Center
21:23 33.9683 -118.2283 211° Southwest 228 262 2,500 -720 Descending Los Angeles Center
21:24 33.9628 -118.2992 265° West 193 222 1,900 -720 Descending Los Angeles Center
21:25 33.9583 -118.3436 263° West 159 183 1,100 -720 Descending Los Angeles Center
21:27 33.9553 -118.3836 265° West 133 153 500 -480 Descending Los Angeles Center
21:28 33.9494 -118.4214 259° West 129 148 200 -300 Descending Los Angeles Center